Regional Weather Roundup
Issued by NWS Northern Indiana

Home | Current Version | Previous Version | Graphics & Text | Print | Product List | Glossary On
Versions: 1 2 3 4 5 6 7 8 9 10 11 12 13 14 15 16 17 18 19 20 21 22 23 24 25 26 27 28 29 30 31 32 33 34 35 36 37 38 39 40 41 42 43 44 45 46 47 48 49 50
010
ASUS43 KIWX 220610
RWRIWX

KIWX WEATHER ROUNDUP
NATIONAL WEATHER SERVICE NORTHERN INDIANA
200 AM EDT SUN OCT 22 2017

NOTE: "FAIR" INDICATES FEW OR NO CLOUDS BELOW 12,000 FEET WITH NO
SIGNIFICANT WEATHER AND/OR OBSTRUCTIONS TO VISIBILITY.

* THESE STATIONS ARE NOT UNDER NWS QUALITY CONTROL. THEY ALSO MAY NOT
  REPORT WEATHER SUCH AS PRECIPITATION OR FOG.

INZ001>027-220700-
NORTHERN INDIANA

CITY           SKY/WX    TMP DP  RH WIND       PRES   REMARKS
GARY*          CLEAR     67  49  53 S8        30.03F
VALPARAISO     PTCLDY    64  51  62 S8        30.07F
6HR MIN TEMP:  64; 6HR MAX TEMP:  71;

MICHIGAN CITY* PTCLDY    64  50  59 S9        30.07S
LAPORTE*       CLEAR     62  50  65 S7        30.08F
6HR MIN TEMP:  62; 6HR MAX TEMP:  68;

KNOX*          CLEAR     63  50  63 S10       30.08S
SOUTH BEND     CLEAR     63  49  60 S8        30.10R
6HR MIN TEMP:  63; 6HR MAX TEMP:  68;

GOSHEN         CLEAR     61  46  57 S8        30.11R
6HR MIN TEMP:  61; 6HR MAX TEMP:  66;

MONTICELLO*    CLEAR     65  48  55 S7        30.09R
6HR MIN TEMP:  64; 6HR MAX TEMP:  69;

LOGANSPORT*    CLEAR     61  48  63 S7        30.12R
WARSAW*        CLEAR     61  46  59 S3        30.12S
AUBURN*        CLEAR     61  45  55 CALM      30.15S
FORT WAYNE     PTCLDY    57  46  66 S6        30.14S
6HR MIN TEMP:  56; 6HR MAX TEMP:  65;

HUNTINGTON*    CLEAR     61  46  57 S6        30.13R
6HR MIN TEMP:  60; 6HR MAX TEMP:  67;

PERU/GRISSOM   PTCLDY    61  49  64 S9        30.11R
6HR MIN TEMP:  61; 6HR MAX TEMP:  66;


$$
INZ028>050-220700-
CENTRAL INDIANA

CITY           SKY/WX    TMP DP  RH WIND       PRES   REMARKS
LAFAYETTE      PTCLDY    63  51  65 S5        30.09R
6HR MIN TEMP:  63; 6HR MAX TEMP:  69;

KOKOMO*        PTCLDY    61  49  64 S9        30.13R
6HR MIN TEMP:  60; 6HR MAX TEMP:  68;

MUNCIE*        CLEAR     62  46  55 S8        30.14S
6HR MIN TEMP:  62; 6HR MAX TEMP:  69;

INDIANAPOLIS   PTCLDY    60  49  66 SE7       30.13R
6HR MIN TEMP:  60; 6HR MAX TEMP:  67;


$$
MIZ043>046-050>051-056>058-064>065-071>073-077>080-220700-
SOUTHWEST LOWER MICHIGAN

CITY           SKY/WX    TMP DP  RH WIND       PRES   REMARKS
BATTLE CREEK   CLEAR     62  46  55 S13       30.12S
6HR MIN TEMP:  62; 6HR MAX TEMP:  68;

BENTON HARBOR  PTCLDY    65  49  56 SE9       30.06S
6HR MIN TEMP:  65; 6HR MAX TEMP:  70;

COLDWATER*     CLEAR     61  44  53 S5        30.13S
6HR MIN TEMP:  61; 6HR MAX TEMP:  67;

HILLSDALE*     CLEAR     59  45  58 S7        30.15R
HOLLAND        PTCLDY    66  51  58 S13       30.06S
6HR MIN TEMP:  65; 6HR MAX TEMP:  68;

GRAND RAPIDS   PTCLDY    65  50  58 S12       30.07S
6HR MIN TEMP:  64; 6HR MAX TEMP:  67;

KALAMAZOO      CLEAR     63  46  54 S9        30.11R
6HR MIN TEMP:  62; 6HR MAX TEMP:  69;

STURGIS*       CLEAR     62  47  58 S9        30.12R
6HR MIN TEMP:  61; 6HR MAX TEMP:  66;

THREE RIVERS*  FAIR      62  48  59 S9        30.12S
6HR MIN TEMP:  62; 6HR MAX TEMP:  69;


$$
OHZ001>008-015>018-024>025-220700-
NORTHWEST OHIO

CITY           SKY/WX    TMP DP  RH WIND       PRES   REMARKS
WAUSEON*       FAIR      52  46  82 SE5       30.16S
DEFIANCE       CLEAR     58  46  64 S5        30.16R
6HR MIN TEMP:  58; 6HR MAX TEMP:  67;

FINDLAY        CLEAR     57  47  69 SE8       30.17R
6HR MIN TEMP:  56; 6HR MAX TEMP:  63;

TOLEDO EXPRESS CLEAR     56  48  74 CALM      30.16R
6HR MIN TEMP:  55; 6HR MAX TEMP:  66;

TOLEDO METCALF CLOUDY    57  46  66 S5        30.18R
6HR MIN TEMP:  55; 6HR MAX TEMP:  64;

LIMA           CLEAR     57  49  74 S7        30.18R
6HR MIN TEMP:  55; 6HR MAX TEMP:  63;


$$
AND FOR LAKE MICHIGAN COASTAL AND OPEN LAKE BUOY OBSERVATIONS

STATION/POSITION TEMP    WIND        PRES    VSBY  WAVE
                 AIR SEA DIR/SP/G                  HT/PER
                 (F)     (DEG/KT/KT) (MB)    (MI)  (FT/S)
CALUMET HARBOR    67     170/ 11/ 20 1015.7F
MICHIGAN CITY     66     160/ 14/ 17   N/A
BURNS HARBOR      66     180/ 14/ 22 1017.3F
SAINT JOSEPH      66     180/  3/  9 1017.9
SOUTH LAKE BUOY   64 61  170/ 17/ 21 1016.2          3/ 4
4 MI NW BRIDGMAN  64 59  180/ 12/ 16 1017.9          2/ 3
MICHIGAN CITY     64 58  180/ 16/ 21   N/A           2/ 3

$$
&&




USA.gov is the U.S. government's official web portal to all federal, state and local government web resources and services.